Wetbulb
46.42 46.26 46.14 45.79 45.38 45.17 45.09 45.07 45.13 45.30 45.37 45.40 45.45 45.07 44.61 44.73 44.61 35.27 32.11 33.86 28.12 19.46 26.39 29.39 29.69 24.44 24.72 22.79 16.08 17.69 16.83 18.28 17.22 15.96 19.61 18.95 18.63 13.13 17.42 17.04 12.89 10.85 8.20 7.93 12.72 4.71 6.68 24.74 23.56 19.03 20.88 23.96 22.32 20.69
46.06 45.74 45.25 44.73 44.60 44.81 44.94 45.06 45.05 44.89 44.76 44.87 44.94 44.98 44.47 44.29 44.27 37.90 28.82 34.02 32.93 25.41 25.49 29.20 30.13 29.81 28.71 27.64 23.61 20.39 17.35 18.99 21.59 18.89 21.56 19.30 17.54 7.73 5.29 7.10 15.03 8.34 15.21 12.40 16.74 16.11 23.36 25.69 25.41 25.37 25.82 22.18 22.01 19.77
45.39 44.72 44.31 44.25 44.44 44.47 44.57 44.52 44.47 44.42 44.44 44.59 44.84 44.86 44.37 43.90 43.88 38.71 30.45 32.64 27.97 21.11 23.88 26.09 27.73 30.30 31.15 30.89 31.23 19.93 22.85 23.59 27.68 25.07 24.71 23.06 17.71 18.03 7.57 9.13 10.28 15.46 16.73 15.25 16.49 18.56 19.52 23.29 28.52 26.47 26.06 24.56 26.72 25.27
44.17 43.93 43.79 43.73 43.83 43.93 44.03 44.12 44.12 44.25 44.44 44.59 44.69 44.61 43.80 43.31 43.30 39.64 31.43 34.48 28.64 21.67 14.01 21.61 29.89 26.48 28.97 30.45 29.87 28.78 27.81 27.63 29.02 27.76 24.47 21.30 17.28 18.94 11.03 13.88 11.32 15.70 16.57 16.76 16.49 17.10 19.85 25.99 26.28 26.98 26.86 25.12 24.97 26.30
44.10 43.86 43.63 43.44 43.49 43.61 43.66 43.71 43.80 43.92 44.14 44.22 44.13 43.95 42.84 42.90 41.51 36.00 33.22 33.02 32.17 25.20 18.79 21.16 24.84 25.52 27.92 28.16 27.76 29.57 30.62 26.10 25.27 22.67 20.97 14.48 11.73 12.28 12.17 16.40 14.99 15.01 15.91 13.52 13.60 19.22 17.97 19.66 26.86 28.43 26.37 25.36 27.37 22.93
43.36 43.02 43.06 43.21 43.41 43.48 43.51 43.59 43.68 43.86 44.05 44.05 43.76 43.22 42.15 42.55 41.03 35.89 28.91 32.84 34.12 29.72 17.57 13.72 22.63 22.35 27.45 27.62 24.39 27.30 28.02 27.85 25.20 22.51 15.97 6.44 8.41 21.46 16.28 14.11 14.42 13.47 14.56 20.49 18.16 25.02 24.03 26.56 28.67 29.73 26.19 26.88 23.46 20.94
42.77 42.90 43.09 43.25 43.39 43.44 43.44 43.48 43.54 43.65 43.81 43.86 43.43 42.20 41.56 41.25 33.34 29.80 27.54 34.09 36.49 29.59 19.02 13.71 15.10 20.55 25.26 27.33 27.87 26.65 27.99 26.01 23.61 15.77 14.14 11.87 13.35 24.42 18.75 7.87 15.00 12.63 13.70 18.01 20.17 21.99 23.92 25.53 26.37 26.61 23.99 23.54 23.50 13.33
43.18 43.30 43.38 43.40 43.47 43.42 43.32 43.34 43.36 43.48 43.71 43.68 42.09 40.54 40.20 40.05 37.85 33.06 35.48 37.44 35.96 25.83 22.09 7.16 10.83 15.50 22.96 22.35 20.56 26.91 23.21 23.88 23.69 13.18 13.42 12.95 16.05 15.25 11.54 14.69 7.38 5.72 9.83 12.93 17.56 19.66 18.29 22.05 21.62 20.28 18.70 18.03 16.37 13.58
43.32 43.43 43.52 43.43 43.44 43.22 43.02 43.06 43.41 43.86 43.86 42.14 38.88 38.14 33.58 31.57 27.42 27.45 37.35 37.86 36.23 25.96 11.79 16.76 13.95 6.65 19.59 16.34 19.13 23.29 24.76 13.27 15.81 9.27 14.63 16.87 9.33 13.88 16.61 9.50 10.55 9.93 12.48 11.47 18.07 17.64 16.62 18.75 20.72 19.02 18.09 15.74 14.42 11.69
43.42 43.47 43.54 43.61 43.55 43.62 43.76 43.90 44.08 43.74 42.77 37.51 29.16 21.19 14.08 28.99 37.29 34.58 25.82 24.72 22.09 24.35 16.24 10.07 17.48 14.94 15.25 12.68 11.36 9.75 15.63 12.14 5.69 10.39 16.40 11.16 6.46 15.83 14.41 16.10 9.46 3.81 4.41 4.25 12.64 12.80 11.75 14.02 19.29 18.13 16.30 16.18 16.45 14.99
43.61 43.70 43.73 43.82 43.89 43.92 44.03 44.12 43.76 42.55 38.46 29.63 25.72 16.11 23.75 34.41 26.61 24.10 18.86 14.27 8.45 5.71 16.33 17.62 19.05 14.38 16.84 12.50 14.04 14.70 7.46 8.31 6.61 7.84 10.76 0.41 2.27 6.16 7.29 2.30 0.72 -0.40 -2.73 1.06 12.41 17.22 17.55 18.30 18.72 16.85 15.02 14.27 13.52 12.77
43.66 43.76 43.86 43.78 43.96 44.23 44.30 44.13 43.24 35.23 30.34 31.75 32.86 33.06 29.05 20.04 15.44 15.08 3.38 6.67 7.73 10.64 13.98 14.69 15.93 16.90 15.41 21.16 16.42 13.53 9.04 7.45 3.71 7.00 4.86 -1.36 5.64 7.46 9.41 7.98 9.42 2.45 4.92 12.56 13.60 13.04 13.40 12.51 12.62 13.02 12.06 11.05 9.40 8.74
42.72 43.05 43.44 43.38 43.33 43.42 43.91 43.74 42.97 39.91 31.82 21.43 15.34 18.07 12.25 5.57 3.01 1.44 0.68 3.88 4.98 12.23 12.89 13.64 16.67 19.36 21.73 22.72 18.36 12.16 12.00 6.83 9.17 9.65 3.79 -0.81 4.45 8.61 9.86 4.66 7.59 12.32 15.18 14.10 11.67 10.73 10.35 9.82 9.73 9.79 8.63 7.81 8.30 7.36
42.21 42.37 42.85 43.04 43.36 43.71 43.32 42.78 42.91 35.91 27.69 15.62 16.21 8.33 4.85 -0.32 0.52 5.13 8.76 10.03 15.84 13.93 13.51 16.06 18.78 18.87 20.82 17.23 12.52 12.04 12.14 10.74 7.14 1.79 -2.16 -2.21 4.00 7.98 10.31 12.24 11.73 11.01 11.63 11.37 11.05 11.81 11.66 11.59 10.20 10.29 9.58 9.39 8.72 7.37
42.27 42.29 42.94 42.88 43.05 43.26 43.07 42.85 42.74 35.64 30.52 18.34 10.90 7.90 4.85 7.48 2.34 5.32 8.25 12.30 18.80 22.26 21.00 21.25 20.95 21.86 18.26 16.32 15.10 15.26 9.26 7.03 6.19 -0.29 2.72 6.66 8.10 8.62 8.90 10.70 10.50 10.81 10.74 10.15 10.60 10.25 10.31 10.62 9.74 7.95 7.81 7.67 7.30 7.19
42.45 42.17 39.39 42.65 43.01 42.69 42.71 40.85 35.12 32.59 30.08 19.91 16.28 10.84 6.11 9.80 10.89 15.99 17.24 18.57 22.38 22.42 22.75 23.71 19.98 15.95 7.06 12.08 11.77 6.76 8.55 1.89 2.16 6.49 7.77 8.38 7.42 7.65 8.00 10.20 10.22 10.14 10.02 9.76 9.25 9.15 9.51 8.67 7.43 7.37 7.69 6.65 6.27 6.41
41.59 37.45 41.78 42.78 42.19 41.45 41.14 33.24 32.00 29.37 27.44 19.27 13.39 7.07 14.90 14.73 18.64 21.10 22.10 20.51 23.73 23.19 19.02 19.22 14.93 12.83 16.65 12.90 8.45 4.11 0.80 3.29 6.31 8.44 8.19 6.57 5.24 5.70 6.50 7.71 8.31 7.83 8.09 8.16 7.40 7.18 7.92 8.69 7.48 6.07 3.63 5.03 5.46 6.34
38.80 39.44 40.62 40.70 39.79 37.14 32.27 32.98 30.88 23.79 21.96 10.64 15.40 12.71 18.45 21.17 18.83 17.90 14.16 18.54 19.79 19.84 21.90 18.84 18.20 10.96 1.43 -0.16 -0.19 2.36 4.76 6.12 8.17 6.85 6.42 4.90 4.06 4.78 5.12 4.76 5.45 4.88 5.71 4.77 4.19 4.17 5.21 4.49 3.85 3.67 4.10 4.76 5.00 4.03
38.16 38.12 38.86 38.88 37.67 33.26 29.08 28.79 30.90 21.52 18.67 14.20 15.81 17.80 12.80 15.40 20.16 14.11 10.20 10.04 12.15 14.56 10.34 2.85 2.38 -2.26 0.46 2.19 2.03 3.71 3.66 2.98 1.54 2.93 5.69 3.40 2.09 0.50 1.54 3.46 3.26 1.59 1.82 -0.26 0.07 1.61 4.25 4.55 2.96 3.08 3.30 3.19 2.68 1.43
37.73 37.38 37.57 38.06 36.93 29.13 26.14 27.01 27.94 24.01 19.07 14.14 11.43 12.17 9.94 11.05 16.78 6.46 3.73 5.17 2.57 -6.48 -0.25 -2.25 -1.98 1.47 1.57 2.97 3.63 3.00 2.80 1.67 0.22 -1.52 -0.23 0.54 -1.59 -4.20 -0.95 -0.66 -0.54 -0.28 -1.66 -3.15 -1.75 4.39 0.43 2.75 2.26 1.92 1.20 2.77 1.90 -3.73
32.47 33.15 33.83 30.80 30.12 22.15 25.88 20.24 14.09 18.15 10.84 14.23 10.12 4.31 2.27 -0.42 -0.97 -3.72 -3.26 0.58 -7.54 -14.32 -7.29 -1.13 -1.14 0.49 -2.07 -2.77 -1.50 -2.13 -6.62 -10.93 -10.01 -10.86 -6.04 -7.44 -3.43 -2.88 -2.49 -1.37 -1.97 -0.99 -4.78 -5.29 -6.38 -5.06 -0.41 -0.59 0.19 0.75 0.77 2.01 1.48 2.49
25.99 33.48 25.90 22.14 21.32 18.29 19.14 10.14 11.27 6.30 8.80 5.11 0.75 -7.69 -8.54 -6.78 -9.54 -9.34 -7.65 -11.85 -16.17 -8.59 -8.50 -8.43 -5.76 -2.19 -0.87 -6.35 -6.71 -8.30 -8.21 -9.28 -10.73 -9.12 -1.43 -3.27 -7.11 -5.22 -4.57 -2.86 -3.11 -6.32 -7.08 -6.44 -5.31 -5.44 -3.37 -2.18 -1.12 2.30 2.15 0.12 1.69 -1.87
25.37 22.54 14.18 5.62 9.88 7.96 9.51 -0.82 0.60 -3.25 -0.85 -3.70 -10.93 -10.22 -11.45 -11.97 -11.72 -10.81 -16.66 -17.13 -10.30 -8.72 -5.83 -3.73 -6.83 -9.50 -5.80 -8.25 -8.67 -8.64 -9.23 -10.56 -10.66 -10.24 -6.93 -8.07 -7.58 -4.35 -3.69 -3.66 -3.55 -8.83 -8.31 -5.76 -3.07 -4.43 -5.82 1.11 -0.45 -0.34 0.40 -3.67 -4.32 -5.37
17.06 1.74 -2.14 -4.19 -8.91 -2.51 -7.93 -9.13 -11.69 -10.73 -12.13 -12.78 -17.84 -9.91 -12.65 -15.36 -13.75 -17.84 -17.05 -16.53 -8.58 -6.30 -3.64 -6.35 -8.52 -9.55 -11.24 -13.58 -10.33 -6.93 -4.78 -5.98 -9.21 -10.09 -7.73 -9.84 -9.23 -6.86 -5.75 -5.27 -4.78 -4.50 -4.10 -3.95 -4.91 -5.56 -5.79 -5.85 0.29 -5.94 -5.99 -8.25 -8.07 -9.24
7.64 -0.34 -5.36 -6.95 -17.55 -7.94 -13.92 -12.17 -14.68 -9.68 -14.01 -21.97 -15.75 -14.71 -14.75 -20.89 -18.60 -23.30 -16.28 -11.61 -13.60 -10.57 -6.49 -7.93 -8.34 -6.88 -8.27 -13.43 -9.81 -7.09 -5.83 -5.59 -8.50 -10.83 -6.74 -9.13 -14.81 -16.34 -9.02 -5.06 -4.73 -4.32 -3.85 -15.29 -11.06 -8.54 -7.70 -7.05 -7.98 -8.41 -8.03 -8.35 -9.71 -9.97
-2.02 -10.13 -4.15 -13.59 -13.87 -7.75 -14.02 -10.62 -16.25 -15.19 -18.38 -18.91 -17.97 -20.07 -25.14 -22.39 -19.36 -15.38 -10.62 -10.69 -10.96 -8.88 -7.10 -8.10 -8.29 -9.57 -8.11 -5.63 -8.35 -11.00 -5.97 -6.37 -10.13 -14.20 -7.22 -7.23 -11.08 -14.87 -12.57 -10.80 -10.53 -7.34 -4.98 -9.64 -16.52 -15.36 -9.02 -6.99 -7.67 -10.01 -9.07 -7.05 1.70 -1.40
-5.88 -9.03 -11.56 -4.41 -8.44 -10.81 -9.87 -9.18 -7.67 -10.29 -14.47 -14.16 -14.93 -18.54 -20.94 -17.85 -19.13 -7.93 -6.24 -7.04 -6.86 -4.85 -3.91 -3.21 -4.34 -4.90 -3.51 -4.57 -6.58 -6.05 -10.57 -11.60 -8.78 -8.44 -9.72 -9.98 -7.84 -7.80 -7.25 -10.91 -12.28 -5.67 -7.20 -12.54 -12.89 -10.53 -9.39 -7.85 -6.95 -6.29 -6.10 -5.25 -5.38 -5.67
-10.10 -10.33 -7.26 -12.37 -11.52 -10.58 -10.73 -14.44 -15.45 -7.93 -8.10 -7.31 -9.87 -12.77 -14.20 -8.35 -3.65 -1.77 -2.77 -4.93 -5.30 -14.53 -15.95 -16.44 -12.00 -7.65 -6.80 -5.81 -9.67 -13.66 -15.42 -19.61 -21.43 -19.53 -14.67 -9.86 -8.84 -7.23 -8.24 -6.83 -6.39 3.03 1.79 -0.13 -0.23 1.61 1.56 0.83 0.16 -0.94 -0.80 -0.42 -0.38 0.16
-12.20 -9.77 -8.49 -11.52 -14.49 -14.10 -8.98 -4.85 -4.25 -1.34 -0.36 -3.62 -5.22 -4.75 -4.82 -2.37 -1.94 -4.57 -2.28 -4.41 -15.73 -13.47 -11.25 -8.29 -9.19 -23.10 -19.11 -17.54 -19.02 -15.59 -16.54 -19.31 -18.27 -13.05 -10.35 -6.84 -4.33 -3.86 -8.07 -7.38 -7.70 -8.56 -9.05 -8.84 3.26 7.71 5.67 6.29 6.35 6.38 3.91 -0.00 -2.44 -5.16
-13.43 -12.01 -14.02 -20.01 -12.44 -3.53 -2.42 -5.38 -6.41 -7.96 -6.86 -6.35 -9.08 -7.53 -5.93 -4.57 -3.03 -4.85 -7.14 -11.49 -11.99 -7.65 -5.42 -10.37 -15.88 -18.01 -11.71 -17.75 -11.81 -11.24 -11.74 -10.52 -10.30 -7.23 -7.00 -6.28 -3.68 -2.50 -12.10 -10.46 -9.16 -6.41 -9.36 -11.05 -8.38 -5.82 5.36 -1.45 -1.72 -8.39 -7.99 -7.02 -7.62 -11.63
-8.61 -11.95 -13.62 -14.34 -9.53 -4.50 -8.68 -12.50 -14.19 -14.08 -14.45 -14.14 -14.31 -12.02 -7.51 -9.71 -9.22 -5.54 -6.49 -4.15 -2.66 -16.09 -19.35 -13.58 -11.34 -17.22 -16.40 -15.13 -17.72 -16.31 -9.01 -5.06 -7.94 -7.08 -4.23 -2.41 -1.68 -2.38 -2.67 -2.57 -3.28 -3.30 -10.06 -10.89 -6.57 -3.87 -3.92 -10.53 -11.82 -11.28 -11.09 -12.55 -14.11 -7.91
-9.03 -10.59 -10.22 -12.86 -7.46 -10.01 -11.32 -15.95 -20.06 -21.95 -21.33 -23.19 -19.14 -23.59 -21.10 -14.40 -10.99 -5.14 -9.97 -15.27 -15.21 -10.68 -4.11 -6.07 -15.38 -3.31 -8.90 -6.02 -8.83 -5.92 6.46 0.56 -4.45 -2.55 -6.05 -2.60 -1.30 0.06 1.60 1.48 1.21 -0.38 -1.74 -4.40 -3.94 -2.91 -5.47 -7.65 -6.28 -9.34 -10.20 -13.42 -14.23 -15.49
-15.31 -15.23 -13.39 -11.97 -11.47 -11.65 -12.92 -12.85 -19.24 -22.37 -26.06 -27.69 -24.46 -23.38 -21.08 -12.31 -9.93 -3.20 -6.83 -6.85 -5.06 -4.26 -1.80 -1.87 -2.00 -6.10 -6.85 -3.80 -1.08 0.63 6.78 3.05 1.97 10.74 14.40 15.63 16.71 12.42 8.53 5.35 4.34 3.32 -1.39 -3.10 -2.04 -0.67 -3.91 -6.04 -7.34 -11.97 -14.29 -15.60 -16.10 -17.09
MSLP
1026.68 1026.81 1026.83 1026.86 1026.68 1026.45 1026.43 1026.29 1025.93 1025.52 1025.13 1024.78 1024.52 1024.25 1023.89 1023.63 1023.32 1023.60 1024.54 1024.30 1024.46 1025.10 1025.02 1024.70 1024.51 1024.64 1025.02 1025.29 1025.64 1025.88 1026.21 1025.87 1025.74 1026.16 1026.34 1026.48 1026.44 1026.33 1026.48 1025.43 1024.94 1025.09 1025.12 1024.56 1023.82 1023.21 1021.67 1020.55 1020.65 1021.03 1021.14 1021.37 1021.83 1022.38
1027.34 1027.43 1027.38 1027.36 1027.21 1027.15 1026.94 1026.64 1026.18 1025.78 1025.43 1025.05 1024.82 1024.59 1024.44 1024.24 1023.95 1023.79 1024.53 1024.63 1024.70 1025.03 1025.13 1024.69 1024.31 1024.08 1024.08 1024.32 1024.99 1025.92 1026.44 1026.03 1025.71 1026.23 1026.81 1027.06 1027.22 1027.44 1027.68 1027.09 1025.47 1025.24 1024.34 1024.25 1023.58 1021.62 1020.52 1020.37 1020.26 1020.39 1020.62 1021.06 1021.64 1022.10
1027.95 1028.00 1027.90 1027.83 1027.65 1027.47 1027.25 1026.98 1026.61 1026.33 1025.89 1025.49 1025.22 1025.05 1024.84 1024.64 1024.33 1024.35 1025.01 1025.21 1025.21 1025.96 1025.42 1024.92 1024.27 1024.02 1023.98 1024.12 1024.33 1025.54 1026.09 1025.70 1025.75 1025.70 1026.34 1027.01 1027.64 1027.68 1027.87 1026.89 1025.65 1024.65 1024.05 1023.87 1023.25 1021.27 1021.02 1020.65 1020.57 1020.55 1020.65 1020.94 1021.36 1021.81
1028.62 1028.51 1028.43 1028.18 1028.00 1027.71 1027.57 1027.35 1026.95 1026.62 1026.27 1025.98 1025.70 1025.37 1025.02 1024.79 1024.69 1024.78 1025.49 1025.65 1025.78 1026.52 1026.62 1024.94 1024.26 1024.26 1023.98 1024.18 1024.54 1024.87 1025.31 1025.65 1026.07 1026.24 1026.75 1027.40 1027.85 1027.37 1026.97 1026.13 1025.76 1024.69 1024.18 1023.22 1022.46 1021.64 1021.17 1020.66 1020.44 1020.38 1020.81 1021.06 1021.45 1021.88
1029.04 1028.94 1028.73 1028.61 1028.29 1028.12 1027.94 1027.67 1027.28 1027.03 1026.64 1026.21 1025.89 1025.51 1025.17 1024.94 1025.01 1025.28 1025.66 1026.04 1025.98 1026.55 1026.72 1025.39 1024.81 1024.67 1024.60 1024.75 1025.01 1025.24 1025.54 1026.02 1026.46 1026.88 1027.49 1028.05 1027.71 1027.66 1026.90 1026.70 1025.34 1023.98 1023.04 1022.81 1021.81 1021.05 1020.77 1020.38 1019.73 1020.08 1020.67 1021.03 1021.36 1021.99
1029.33 1029.30 1029.19 1028.91 1028.68 1028.56 1028.26 1027.77 1027.41 1027.07 1026.66 1026.33 1025.84 1025.46 1025.24 1025.01 1025.14 1025.31 1025.87 1026.06 1025.97 1026.33 1026.67 1026.23 1025.57 1025.35 1025.62 1025.67 1025.83 1025.98 1026.00 1026.11 1026.59 1027.20 1027.96 1027.70 1027.35 1027.29 1027.26 1026.36 1023.72 1023.13 1022.47 1022.06 1021.42 1020.84 1020.46 1019.98 1019.76 1019.85 1020.59 1020.90 1021.69 1022.48
1029.63 1029.50 1029.42 1029.29 1029.05 1028.62 1028.18 1027.92 1027.60 1027.18 1026.65 1026.13 1025.81 1025.56 1025.24 1025.19 1025.69 1025.86 1026.24 1026.35 1026.05 1026.36 1027.02 1026.95 1026.37 1026.28 1026.17 1026.14 1026.19 1026.30 1026.20 1026.37 1026.76 1027.31 1027.95 1027.98 1027.43 1027.01 1026.61 1025.90 1023.07 1022.98 1022.87 1022.25 1021.61 1021.32 1020.88 1020.20 1019.92 1020.17 1020.54 1021.25 1022.26 1023.23
1029.95 1029.75 1029.64 1029.48 1029.12 1028.65 1028.25 1028.03 1027.61 1027.02 1026.44 1025.88 1025.61 1025.47 1025.35 1025.45 1025.71 1026.10 1026.37 1026.10 1026.11 1026.88 1027.41 1028.49 1027.73 1027.24 1026.89 1026.65 1026.72 1026.40 1026.59 1026.79 1027.00 1027.34 1027.66 1027.70 1027.50 1027.18 1026.35 1023.76 1023.69 1023.47 1023.40 1022.68 1021.80 1021.38 1020.98 1020.56 1020.62 1020.83 1021.32 1022.17 1022.85 1023.70
1030.11 1029.86 1029.52 1029.25 1028.98 1028.75 1028.46 1027.97 1027.27 1026.71 1026.11 1025.72 1025.76 1025.71 1026.00 1026.32 1026.62 1026.72 1026.18 1025.83 1026.08 1027.14 1027.93 1028.67 1028.83 1028.08 1027.20 1027.32 1027.11 1026.88 1026.78 1027.18 1027.50 1027.56 1027.48 1027.47 1027.29 1026.56 1023.79 1023.98 1024.12 1023.85 1023.72 1023.01 1022.31 1021.78 1021.42 1021.08 1021.21 1021.49 1021.61 1022.22 1023.07 1024.13
1030.16 1029.95 1029.65 1029.35 1029.10 1028.75 1028.21 1027.64 1027.03 1026.41 1025.93 1025.82 1025.97 1026.57 1026.96 1026.96 1026.44 1026.64 1026.42 1026.81 1026.98 1027.57 1027.95 1028.54 1028.39 1028.28 1027.73 1027.45 1027.10 1027.53 1027.30 1027.36 1027.83 1027.27 1027.21 1027.28 1026.58 1024.03 1023.61 1023.36 1023.71 1024.11 1024.11 1023.82 1023.31 1022.81 1022.35 1021.97 1022.04 1022.46 1022.87 1023.24 1023.63 1024.22
1030.06 1029.77 1029.53 1029.25 1028.86 1028.43 1027.89 1027.37 1026.88 1026.46 1026.32 1026.74 1027.28 1027.52 1027.45 1026.90 1026.96 1027.32 1027.88 1028.41 1028.85 1028.98 1028.54 1028.19 1027.84 1028.05 1027.05 1027.25 1027.08 1027.09 1027.33 1027.72 1028.05 1027.49 1027.74 1027.88 1027.05 1025.62 1025.39 1025.17 1024.90 1024.96 1024.86 1024.67 1024.00 1023.30 1022.95 1022.86 1022.90 1023.29 1023.65 1024.06 1024.55 1025.06
1029.82 1029.46 1029.15 1028.82 1028.42 1028.08 1027.71 1027.31 1026.97 1027.27 1027.54 1027.50 1027.59 1027.25 1027.59 1028.16 1028.43 1029.17 1029.57 1030.00 1029.65 1028.88 1028.30 1027.98 1027.38 1027.34 1026.61 1026.36 1026.49 1026.88 1027.12 1027.76 1027.57 1027.46 1028.34 1028.39 1026.73 1026.88 1026.32 1025.54 1025.26 1025.16 1024.79 1024.56 1024.23 1024.01 1023.95 1024.08 1024.26 1024.46 1024.80 1025.19 1025.66 1026.07
1029.34 1029.01 1028.78 1028.42 1028.14 1027.79 1027.42 1027.09 1026.96 1027.16 1027.51 1028.03 1028.28 1028.54 1029.23 1030.23 1030.45 1029.98 1030.24 1029.69 1029.11 1027.82 1027.20 1027.07 1026.95 1026.42 1025.82 1025.85 1025.80 1026.37 1026.71 1027.10 1027.00 1027.80 1028.20 1027.89 1028.25 1027.46 1026.76 1026.22 1025.76 1025.44 1025.16 1025.17 1025.20 1025.15 1025.12 1025.13 1025.13 1025.30 1025.65 1025.93 1026.23 1026.65
1028.89 1028.56 1028.26 1027.81 1027.63 1027.39 1027.13 1026.99 1026.72 1027.14 1027.66 1029.01 1029.87 1030.40 1030.82 1031.13 1030.45 1029.35 1028.78 1027.88 1026.93 1026.59 1026.55 1026.43 1026.26 1025.78 1024.92 1025.11 1024.94 1025.56 1025.25 1026.11 1026.98 1027.86 1028.19 1029.04 1029.00 1028.56 1028.04 1027.36 1026.82 1026.63 1026.33 1026.15 1026.04 1025.94 1025.90 1025.94 1026.10 1026.27 1026.50 1026.77 1026.95 1027.14
1028.51 1028.15 1027.72 1027.34 1027.10 1027.01 1026.90 1026.68 1026.53 1027.00 1027.88 1029.16 1030.48 1030.88 1030.72 1029.55 1029.21 1028.68 1028.52 1027.77 1026.65 1026.12 1025.90 1025.48 1024.92 1024.55 1024.44 1024.58 1024.49 1024.77 1025.74 1026.13 1026.70 1027.97 1029.15 1029.64 1029.61 1029.35 1028.79 1028.23 1027.93 1027.70 1027.49 1027.28 1027.05 1026.87 1026.74 1026.68 1026.75 1027.01 1027.31 1027.49 1027.54 1027.42
1027.98 1027.55 1027.16 1026.95 1026.82 1026.69 1026.49 1026.36 1026.84 1027.10 1027.57 1028.64 1029.14 1029.52 1029.17 1029.35 1028.48 1027.95 1027.33 1027.01 1026.01 1025.66 1025.40 1025.14 1024.62 1024.39 1024.54 1024.37 1024.68 1025.32 1026.09 1027.32 1028.49 1029.06 1029.88 1030.24 1030.24 1030.04 1029.74 1029.08 1028.85 1028.72 1028.47 1028.25 1028.11 1027.89 1027.65 1027.51 1027.51 1027.56 1027.66 1027.75 1027.78 1027.72
1027.63 1027.44 1027.06 1026.75 1026.58 1026.34 1026.14 1026.39 1026.89 1026.82 1026.85 1027.88 1028.14 1028.34 1028.52 1028.55 1028.32 1027.86 1027.41 1026.69 1026.01 1025.89 1025.61 1025.20 1024.71 1024.57 1024.45 1024.65 1025.91 1027.53 1028.60 1029.49 1029.89 1030.14 1030.70 1031.22 1031.25 1031.05 1030.77 1030.20 1029.83 1029.68 1029.39 1029.16 1029.03 1028.78 1028.43 1028.20 1028.12 1028.06 1028.07 1028.05 1028.01 1027.89
1027.27 1027.23 1026.86 1026.59 1026.23 1026.10 1026.03 1025.92 1026.28 1026.31 1026.84 1027.40 1028.27 1028.52 1028.13 1027.94 1027.98 1027.78 1027.67 1027.51 1027.23 1026.49 1025.97 1025.85 1025.93 1025.91 1027.34 1028.26 1029.32 1030.44 1030.77 1031.22 1031.27 1031.44 1031.69 1032.08 1032.15 1031.98 1031.70 1031.29 1030.97 1030.76 1030.45 1030.25 1029.94 1029.49 1029.05 1028.80 1028.69 1028.58 1028.47 1028.32 1028.14 1028.11
1027.12 1026.83 1026.46 1026.16 1026.13 1026.44 1026.61 1026.27 1026.10 1026.42 1026.96 1027.69 1028.13 1028.40 1028.37 1028.02 1027.75 1028.57 1028.95 1028.80 1028.55 1028.42 1028.38 1028.60 1028.78 1029.52 1030.25 1031.06 1031.63 1032.00 1032.35 1032.63 1032.85 1032.75 1032.58 1032.82 1032.90 1032.82 1032.53 1032.09 1031.72 1031.44 1031.17 1030.97 1030.60 1030.14 1029.62 1029.33 1029.14 1028.92 1028.79 1028.53 1028.29 1028.35
1026.64 1026.58 1026.30 1025.85 1026.00 1026.88 1026.94 1026.78 1026.60 1027.00 1027.60 1028.12 1028.61 1028.95 1029.03 1029.01 1029.17 1030.22 1030.36 1030.48 1030.47 1031.08 1031.53 1031.96 1032.15 1032.27 1032.46 1032.78 1033.13 1033.38 1033.59 1033.86 1033.96 1033.73 1033.45 1033.46 1033.52 1033.46 1033.16 1032.83 1032.57 1032.22 1031.88 1031.66 1031.19 1030.42 1029.99 1029.56 1029.43 1029.27 1028.99 1028.50 1028.28 1028.45
1026.94 1026.83 1026.50 1026.36 1026.32 1026.98 1027.82 1028.35 1028.47 1028.43 1028.73 1029.31 1029.59 1030.29 1030.94 1030.60 1031.27 1032.08 1032.75 1032.50 1032.74 1033.55 1033.85 1033.70 1033.67 1033.59 1033.58 1033.84 1034.07 1034.33 1034.43 1034.61 1034.82 1034.86 1034.42 1034.04 1033.85 1033.73 1033.40 1032.99 1032.72 1032.40 1032.23 1032.02 1031.65 1031.07 1030.53 1030.06 1029.69 1029.34 1029.01 1028.61 1028.35 1028.30
1027.71 1027.03 1027.28 1027.49 1027.93 1028.32 1028.95 1029.94 1030.48 1030.44 1030.80 1031.18 1031.73 1032.73 1033.71 1033.80 1034.22 1034.42 1034.36 1034.38 1035.11 1034.63 1034.40 1034.19 1034.28 1034.20 1034.40 1034.58 1034.57 1034.60 1034.69 1034.83 1034.98 1034.97 1034.36 1034.26 1034.28 1033.96 1033.56 1033.22 1032.85 1032.54 1032.37 1032.10 1031.73 1031.33 1030.83 1030.41 1029.81 1029.21 1028.99 1028.76 1028.51 1028.39
1027.85 1027.89 1029.03 1029.64 1030.10 1030.78 1031.66 1031.58 1032.41 1033.11 1033.45 1034.11 1034.39 1035.45 1035.75 1035.73 1035.84 1035.45 1035.93 1035.91 1035.48 1034.58 1034.35 1034.37 1034.42 1034.42 1034.57 1034.41 1034.39 1034.53 1034.61 1034.97 1035.13 1034.98 1034.71 1034.61 1034.41 1034.05 1033.59 1033.17 1032.87 1032.57 1032.11 1031.70 1031.45 1031.18 1030.86 1030.27 1029.91 1029.55 1029.17 1028.90 1028.64 1028.29
1028.91 1030.61 1031.98 1032.67 1033.74 1033.94 1033.88 1034.89 1035.20 1035.74 1035.85 1036.76 1037.82 1037.56 1037.64 1037.61 1036.97 1036.76 1037.05 1036.56 1035.15 1034.49 1034.49 1034.34 1034.47 1034.76 1034.97 1035.03 1034.74 1034.42 1034.32 1034.49 1034.78 1034.72 1034.38 1034.46 1034.26 1033.70 1033.29 1032.92 1032.41 1032.07 1031.73 1031.37 1031.22 1030.99 1030.63 1030.24 1029.77 1029.42 1029.05 1028.74 1028.35 1028.05
1030.97 1034.09 1034.79 1035.32 1036.14 1036.13 1036.93 1037.12 1037.27 1037.48 1038.31 1039.18 1039.26 1038.87 1038.62 1038.72 1038.25 1037.70 1037.09 1035.74 1035.03 1034.48 1034.31 1034.12 1034.27 1034.39 1034.58 1034.50 1034.02 1033.79 1033.65 1033.92 1034.29 1034.37 1033.52 1033.58 1033.51 1033.41 1032.97 1032.42 1031.86 1031.41 1031.11 1031.24 1031.09 1030.69 1030.26 1029.84 1029.42 1029.04 1028.58 1028.23 1027.82 1027.18
1033.66 1036.01 1036.88 1037.00 1037.48 1037.47 1037.90 1038.15 1038.31 1038.61 1039.17 1039.35 1039.13 1039.15 1039.02 1039.05 1038.61 1036.91 1035.23 1034.09 1034.07 1033.70 1033.76 1033.81 1033.73 1033.80 1033.68 1033.38 1033.37 1033.19 1032.92 1032.92 1033.50 1033.93 1032.97 1032.69 1032.75 1033.02 1032.67 1032.25 1031.58 1030.56 1030.21 1030.29 1030.53 1030.22 1029.72 1029.14 1028.71 1028.26 1027.79 1027.04 1026.34 1026.00
1035.89 1036.93 1037.46 1037.35 1037.41 1037.72 1038.08 1038.25 1038.27 1038.42 1038.62 1038.64 1038.59 1038.86 1039.00 1037.97 1036.39 1034.25 1032.78 1032.53 1032.71 1032.13 1031.97 1032.17 1032.58 1032.74 1032.52 1032.27 1032.27 1032.20 1032.13 1032.36 1032.41 1032.22 1031.99 1031.96 1031.81 1031.71 1031.69 1031.40 1030.62 1029.64 1029.19 1029.40 1029.48 1029.42 1028.95 1028.22 1027.69 1027.09 1026.61 1026.10 1025.79 1025.45
1036.73 1037.27 1037.70 1037.82 1037.75 1037.93 1037.89 1038.02 1038.15 1037.44 1037.08 1037.23 1037.77 1037.78 1036.91 1035.51 1033.16 1031.50 1031.22 1030.87 1031.13 1031.37 1031.56 1031.92 1031.85 1031.82 1031.79 1031.56 1031.61 1031.89 1031.89 1031.89 1031.99 1031.94 1031.60 1031.09 1030.43 1029.98 1029.69 1029.41 1029.06 1028.31 1028.27 1028.24 1028.06 1027.68 1027.25 1026.87 1026.32 1025.70 1025.27 1024.98 1024.67 1024.38
1037.78 1037.86 1037.91 1038.26 1038.37 1038.17 1037.38 1036.93 1036.50 1035.86 1035.63 1036.15 1036.38 1035.43 1033.85 1032.22 1030.84 1030.43 1030.32 1030.52 1031.10 1031.42 1031.96 1031.73 1031.48 1031.60 1031.54 1031.33 1031.25 1031.18 1031.33 1031.79 1032.13 1031.56 1030.64 1029.63 1028.92 1028.43 1027.72 1027.74 1027.54 1027.27 1027.23 1027.33 1026.93 1026.41 1025.98 1025.29 1024.61 1024.16 1024.33 1024.47 1024.40 1024.27
1038.40 1038.46 1038.49 1038.37 1038.15 1037.02 1035.90 1035.93 1036.14 1036.14 1036.09 1036.03 1035.77 1034.51 1033.02 1031.17 1029.78 1029.40 1029.69 1030.26 1030.86 1030.54 1030.18 1030.36 1030.41 1030.87 1030.92 1031.12 1030.49 1029.93 1029.47 1029.55 1029.69 1029.54 1028.85 1027.91 1027.05 1026.21 1026.37 1026.48 1026.45 1026.16 1026.04 1026.21 1026.16 1025.66 1025.03 1024.84 1024.57 1024.43 1024.58 1024.44 1024.31 1024.28
1038.40 1038.53 1038.48 1038.16 1037.09 1035.99 1036.19 1036.54 1036.68 1036.93 1036.90 1036.43 1036.30 1035.97 1034.51 1032.96 1030.40 1028.60 1028.58 1028.72 1028.99 1029.23 1029.73 1029.85 1029.78 1029.79 1030.11 1029.87 1029.52 1028.93 1028.20 1027.06 1027.13 1026.96 1026.61 1026.09 1025.64 1025.44 1025.32 1025.12 1024.92 1024.90 1024.91 1025.07 1025.10 1024.83 1024.53 1024.45 1024.52 1024.47 1024.36 1024.21 1024.01 1023.90
1038.50 1038.56 1038.42 1038.12 1036.69 1036.45 1036.65 1037.06 1037.37 1037.59 1037.36 1037.26 1036.81 1036.47 1035.59 1034.66 1032.83 1029.28 1028.34 1028.77 1028.85 1028.87 1028.41 1028.54 1029.06 1028.06 1027.55 1027.48 1027.17 1026.82 1026.21 1025.75 1025.52 1025.17 1024.87 1024.56 1024.14 1023.82 1023.75 1023.39 1023.22 1023.51 1023.57 1023.56 1023.48 1023.43 1023.43 1023.61 1023.78 1023.83 1023.83 1023.70 1023.49 1023.36
1038.80 1038.84 1038.60 1038.26 1037.58 1037.11 1037.13 1037.47 1037.50 1037.74 1037.59 1037.55 1036.97 1036.48 1035.88 1034.81 1032.88 1029.73 1028.54 1028.48 1028.27 1028.17 1028.08 1027.85 1027.43 1027.22 1026.85 1026.49 1026.04 1025.51 1024.87 1024.38 1024.20 1023.22 1022.44 1021.86 1021.04 1021.18 1021.37 1021.34 1021.33 1021.50 1021.68 1021.88 1021.93 1021.95 1022.25 1022.53 1022.81 1022.93 1023.00 1022.98 1022.83 1022.65
Wind_Speed
17 16 16 16 17 17 17 17 18 19 20 21 21 22 22 21 20 5 0 4 3 3 3 4 4 4 2 2 4 4 5 4 4 4 2 1 2 3 2 4 5 5 3 4 1 1 8 3 2 3 5 2 5 3
16 16 16 16 16 16 16 17 18 19 20 20 20 20 20 18 16 6 3 3 2 4 3 1 3 2 3 5 5 2 3 2 4 4 2 1 3 2 2 4 2 3 8 5 8 8 4 4 6 4 7 6 5 6
16 15 15 15 15 16 16 17 17 18 18 18 19 18 17 15 13 7 1 4 3 3 4 2 5 4 1 3 3 5 2 4 2 2 3 2 6 4 3 8 2 5 4 4 3 3 5 3 3 4 5 5 3 1
14 14 14 14 15 16 16 16 17 18 19 18 18 18 15 12 10 6 3 3 3 2 3 5 1 2 1 3 3 2 5 4 3 2 2 3 3 4 4 5 5 5 4 5 6 7 5 8 9 8 6 4 5 5
13 14 14 14 15 15 15 16 17 17 18 18 18 16 14 10 7 6 3 2 1 4 3 4 3 2 3 5 7 6 7 3 2 1 2 4 2 2 2 2 6 6 7 5 7 7 5 6 9 8 8 8 7 6
13 13 13 14 14 14 15 16 17 17 18 18 18 15 12 8 3 1 3 3 3 2 3 4 2 3 4 4 5 4 2 2 2 3 4 4 3 2 3 6 9 6 3 3 5 2 5 7 9 10 7 5 3 4
12 12 13 14 14 16 16 17 17 18 19 20 18 12 9 4 3 2 2 2 6 2 3 6 5 3 1 2 1 1 0 1 3 2 3 2 2 4 3 5 6 5 5 6 5 3 5 3 6 6 5 7 4 3
12 13 13 13 14 16 17 17 18 18 20 20 14 7 2 6 6 2 2 5 5 3 3 2 6 5 4 0 1 0 2 1 2 3 1 2 2 2 6 11 6 6 7 7 6 5 5 0 4 5 4 5 5 4
11 12 14 15 15 16 16 17 19 19 20 18 8 4 3 4 3 2 11 6 2 4 2 2 2 5 2 0 2 1 2 3 1 2 3 3 1 8 11 6 8 7 6 5 2 0 1 4 6 4 5 5 4 3
11 11 12 13 13 14 15 17 19 20 17 6 5 5 4 0 7 5 6 3 3 2 3 3 1 4 3 1 2 2 2 3 2 5 1 3 6 10 10 12 6 5 3 1 2 4 3 3 1 1 1 2 2 0
12 12 12 13 14 15 16 18 17 15 9 5 5 1 4 6 3 3 2 3 3 5 2 4 4 3 2 2 4 3 3 1 1 6 4 3 6 4 11 8 5 5 3 5 4 3 5 6 3 2 3 4 4 4
13 14 14 15 16 17 17 17 14 3 2 1 3 2 3 5 4 2 2 3 2 5 3 3 5 5 4 2 1 2 3 2 7 1 3 4 3 10 13 12 6 5 3 5 6 7 8 9 7 7 6 6 6 6
14 15 15 17 17 17 18 14 10 3 3 4 5 3 4 4 5 4 2 5 3 4 4 3 4 4 3 3 3 3 5 7 2 2 6 4 8 12 14 10 5 5 6 8 9 7 7 8 7 5 4 3 4 4
15 15 16 19 19 18 9 12 12 3 4 4 4 6 4 5 5 6 5 4 5 2 1 2 3 4 3 4 3 4 4 3 4 3 6 3 7 10 11 11 9 10 8 7 6 5 5 5 4 5 5 5 4 4
16 16 18 17 11 8 15 15 12 2 2 2 4 5 6 5 4 4 4 4 2 3 3 3 4 3 3 4 4 2 1 5 2 1 2 5 8 9 11 11 10 10 9 9 8 7 8 6 5 5 5 4 4 4
16 16 4 7 6 12 14 9 2 2 3 3 3 2 3 2 5 2 1 3 1 2 2 3 4 3 5 4 3 5 3 1 3 2 3 5 8 9 10 10 8 9 9 7 7 9 7 6 6 4 3 4 5 5
13 4 11 13 13 14 11 0 1 4 5 4 5 0 2 2 4 3 2 3 2 2 3 3 4 8 3 3 4 3 2 3 5 3 4 7 8 9 9 10 10 10 10 8 8 9 8 4 3 3 5 5 4 3
2 5 13 17 14 4 1 3 3 3 5 3 1 2 2 2 2 3 2 5 4 2 2 3 5 4 3 2 2 2 2 3 3 5 4 5 7 7 8 9 8 8 8 8 8 8 7 4 4 4 5 5 4 3
9 11 17 16 9 1 3 3 2 4 3 1 2 1 2 3 1 5 1 4 2 2 3 5 5 2 2 2 1 1 2 2 3 5 2 3 4 5 6 7 7 8 8 8 9 6 5 2 2 3 4 4 2 3
16 11 11 11 2 2 3 3 3 3 2 3 0 2 2 2 2 2 2 5 3 3 5 4 1 1 1 1 0 1 1 2 2 2 2 2 2 4 4 4 5 7 5 6 6 12 6 2 2 3 4 6 1 2
7 6 9 6 2 3 0 2 4 1 3 1 1 2 3 3 4 4 3 3 5 2 1 2 2 1 1 1 1 1 1 2 2 4 3 3 2 3 4 5 4 6 3 5 5 7 8 6 4 6 5 5 3 3
2 8 3 6 3 5 2 3 2 3 1 2 4 3 3 3 3 2 3 5 1 4 3 3 3 2 2 3 4 3 3 2 1 2 4 4 3 3 4 5 5 5 4 5 5 5 5 6 7 6 4 4 6 5
5 4 4 5 4 4 4 5 4 5 3 5 4 5 4 3 2 3 3 3 4 3 3 3 3 2 3 2 1 2 3 4 2 3 3 2 3 5 5 5 5 5 6 5 4 4 4 10 8 8 5 6 5 6
9 6 5 3 4 3 4 6 3 4 5 6 5 5 5 3 5 5 2 3 4 2 1 3 2 1 2 2 3 4 4 4 3 3 4 3 3 4 3 6 6 5 6 6 4 5 5 5 10 5 6 6 6 6
6 5 6 4 3 6 6 6 6 6 2 2 4 5 4 4 3 3 3 5 2 3 3 1 2 3 4 3 3 4 4 4 4 5 4 4 2 3 4 5 6 6 5 2 4 4 5 5 6 7 8 7 8 10
2 4 2 4 4 2 3 2 1 2 1 3 5 3 3 3 3 7 5 4 4 4 4 4 4 2 4 6 4 3 5 4 4 3 5 4 4 4 4 6 6 7 4 4 4 4 8 8 8 9 10 13 18 13
1 4 2 1 2 3 2 2 2 2 2 5 3 2 3 1 6 6 3 4 4 5 5 4 4 5 6 4 4 4 3 4 6 5 1 2 4 6 7 7 7 7 3 4 5 6 9 10 10 11 11 10 9 8
3 2 4 3 1 0 3 1 3 5 4 3 3 2 6 8 7 4 6 4 4 2 2 2 3 4 5 6 4 2 3 1 3 4 5 7 9 8 8 8 9 18 10 8 8 8 8 9 11 13 13 12 9 5
2 1 2 1 1 2 5 6 5 3 2 4 4 5 7 5 3 3 3 3 2 2 2 4 4 1 4 4 3 5 4 3 2 8 14 11 8 7 5 7 7 6 5 6 17 16 13 12 12 8 8 6 7 6
2 0 3 1 3 5 4 4 2 1 2 2 3 5 4 4 5 2 2 3 3 6 7 5 3 4 5 3 5 5 5 7 9 10 9 10 9 5 3 4 6 7 5 5 7 9 16 8 9 5 6 6 6 5
2 1 1 2 5 2 1 2 2 1 2 3 1 3 5 7 7 4 5 6 6 2 2 4 6 5 5 5 6 4 7 5 10 14 13 9 9 8 8 8 8 6 4 5 7 8 8 5 4 6 7 8 9 10
1 3 2 3 5 1 1 3 2 2 2 2 2 1 4 3 6 5 1 3 2 3 10 6 3 8 6 6 3 5 15 6 6 8 10 8 9 11 11 10 8 7 8 9 8 9 8 8 7 7 8 9 8 8
1 0 1 3 4 5 3 4 3 5 2 2 3 3 3 3 7 5 2 3 3 2 3 4 6 4 5 6 7 9 12 9 13 20 24 24 21 17 11 8 9 10 11 9 9 9 9 8 8 8 9 9 9 8
Wind_Direction
80 72 66 60 54 48 42 38 36 33 30 25 21 20 18 15 18 53 277 12 91 120 259 201 188 150 106 115 149 255 36 334 37 82 167 205 225 258 290 258 210 173 173 228 111 315 284 192 276 171 208 78 149 143
76 68 61 56 50 45 39 33 31 27 23 20 17 14 11 9 12 42 41 356 1 101 217 263 243 236 197 182 138 14 192 173 195 107 176 138 225 19 157 266 10 301 187 198 181 222 211 196 205 213 183 164 185 151
68 61 57 52 46 39 33 27 23 18 15 12 9 7 7 5 12 51 81 352 42 54 327 25 232 217 100 175 168 128 268 222 155 142 146 183 247 153 217 237 245 271 172 228 33 284 249 227 258 206 191 152 156 138
63 55 49 44 38 32 25 19 15 11 7 4 360 357 1 1 13 49 60 346 83 112 109 280 3 238 93 124 95 97 133 71 82 58 203 205 231 163 236 248 210 191 141 221 257 280 301 246 218 193 201 161 158 179
53 45 38 32 29 23 17 12 10 4 0 356 352 353 354 354 72 78 76 33 83 114 239 275 310 334 31 109 104 114 139 133 170 162 185 223 248 97 255 283 255 194 204 171 236 229 198 239 206 176 179 189 187 164
41 34 27 22 18 13 9 7 2 357 354 349 346 345 344 344 116 343 25 359 26 83 70 330 296 29 48 72 93 115 181 197 151 180 217 274 268 186 268 260 247 235 269 210 253 306 228 269 196 176 195 178 173 165
31 24 18 12 7 5 3 357 352 349 345 344 341 338 338 90 76 78 147 14 13 61 66 321 341 348 21 115 105 98 36 198 160 182 227 189 257 211 241 233 260 244 254 280 267 269 267 219 198 188 163 126 150 115
18 13 8 3 360 358 356 350 344 342 337 337 339 338 11 65 90 75 1 341 2 76 69 31 279 350 346 75 202 125 185 179 200 212 198 183 298 206 259 246 274 266 287 284 275 242 235 51 110 130 107 133 151 163
6 2 360 357 355 352 347 342 340 336 334 342 349 43 45 36 46 252 300 329 86 122 137 97 307 275 345 88 222 222 234 247 281 210 239 139 230 228 234 248 253 241 215 241 285 339 228 174 184 168 147 156 155 140
352 349 348 347 343 339 338 339 340 342 338 6 42 48 8 259 290 337 2 29 36 360 44 186 153 264 99 358 278 84 314 226 247 243 142 202 252 266 257 249 259 274 247 168 78 320 319 303 224 52 345 27 32 21
335 333 333 330 330 331 335 339 345 347 21 20 8 303 233 315 53 32 5 62 323 357 225 241 187 238 252 167 230 186 192 201 200 257 157 285 273 295 340 320 304 314 307 285 291 323 34 38 22 43 41 48 58 69
319 321 326 328 326 326 330 337 346 29 188 250 282 358 1 26 24 32 297 305 154 223 247 188 229 205 263 190 156 241 183 79 239 165 96 264 263 333 332 324 333 359 33 47 29 58 56 51 39 51 47 53 52 58
315 317 322 321 324 324 324 329 332 78 71 38 43 37 44 311 26 129 265 303 280 199 218 212 250 223 202 215 222 157 210 226 75 191 226 221 336 346 351 338 355 3 45 53 49 46 57 67 65 70 78 84 119 111
312 312 311 310 314 310 329 336 328 108 59 67 37 318 140 296 250 196 194 201 249 140 126 181 251 222 202 202 194 220 221 129 215 225 233 337 340 345 360 14 33 34 43 51 51 43 40 42 54 51 59 44 27 15
310 309 306 306 310 323 329 329 347 99 164 169 96 244 225 245 248 242 250 331 265 217 204 262 239 218 207 250 202 229 227 243 219 273 40 351 358 1 1 7 15 16 16 20 18 16 14 24 34 69 55 36 14 356
310 313 275 287 325 324 321 334 85 131 176 149 231 274 226 5 280 245 143 263 269 242 256 230 265 250 254 212 201 229 238 97 28 50 33 2 6 5 357 359 22 11 5 10 12 7 0 21 24 30 35 26 6 348
318 246 325 333 339 330 317 358 161 232 208 193 254 344 135 230 263 300 303 267 243 253 240 250 237 228 305 238 128 25 57 31 343 39 54 26 6 357 354 355 22 6 354 21 8 357 344 11 358 9 1 354 346 2
267 322 329 326 326 329 289 196 226 211 235 244 228 233 214 216 248 267 319 3 319 264 241 230 344 359 32 27 67 19 12 345 359 356 54 32 9 359 0 354 7 357 357 0 346 333 330 347 351 351 340 337 314 354
309 312 311 320 315 332 282 283 229 267 235 202 257 250 215 247 121 81 7 329 271 40 10 11 54 58 70 54 31 348 352 1 324 321 39 47 12 351 342 348 357 349 345 348 337 321 325 328 316 319 317 311 306 320
307 329 340 320 114 164 267 259 333 273 309 238 241 295 255 236 64 69 18 6 32 53 46 50 133 192 197 198 163 288 314 331 305 315 315 8 344 346 339 337 332 321 315 328 323 335 312 320 318 323 304 284 317 285
359 339 2 346 24 105 334 360 317 307 295 271 284 57 285 8 37 24 353 339 57 84 110 205 198 231 128 149 171 186 166 123 187 182 243 293 300 321 314 317 311 321 327 319 311 311 333 316 313 306 298 288 283 292
299 343 34 4 62 342 90 27 237 291 1 270 18 44 29 12 343 326 292 51 148 224 188 184 220 203 191 215 222 192 204 186 207 280 327 333 324 319 311 303 312 300 292 285 287 289 303 305 296 293 332 295 330 305
11 38 48 18 57 36 257 11 53 0 40 294 7 20 342 341 266 336 46 222 248 236 208 202 218 229 222 227 135 207 199 169 234 245 274 253 249 274 273 279 282 280 290 287 277 280 281 299 323 312 311 317 299 294
36 53 55 55 64 266 354 8 16 19 25 23 22 320 335 295 334 42 245 260 252 276 212 230 162 315 345 358 233 229 219 188 221 280 246 226 265 277 253 285 284 267 263 281 284 276 276 276 302 307 292 285 285 276
77 328 71 333 333 38 23 357 347 33 332 319 10 316 309 358 15 333 246 265 258 241 237 235 221 212 218 246 269 244 209 182 202 232 256 190 231 305 281 275 282 272 267 240 271 263 276 283 280 278 279 276 271 279
82 309 89 191 280 96 198 348 292 230 184 323 243 270 16 67 21 253 235 218 220 207 209 204 214 234 243 214 231 238 232 185 147 199 265 215 205 197 265 290 302 298 210 197 213 261 287 289 282 279 283 286 301 317
121 258 284 260 131 108 41 28 32 144 217 215 246 3 52 321 251 250 259 219 201 215 197 191 187 208 239 245 228 234 199 172 188 202 237 272 252 224 231 241 250 247 196 207 224 238 259 275 281 281 279 282 278 272
167 180 169 237 72 175 176 187 190 217 227 186 110 226 199 210 241 227 206 221 207 161 211 250 227 221 232 236 220 230 262 213 297 306 281 255 244 246 232 235 238 262 261 244 248 254 269 274 272 273 277 280 285 285
72 1 92 355 315 227 222 207 226 216 172 171 195 224 236 227 240 226 231 195 133 120 266 274 275 225 271 270 247 232 215 165 119 267 274 279 291 277 216 226 235 240 247 252 277 277 274 284 279 287 330 323 304 289
277 227 100 109 198 240 230 178 245 278 245 269 295 295 268 253 240 205 205 163 182 225 228 208 207 174 230 181 272 286 210 197 199 213 240 252 244 240 214 230 242 247 218 215 248 277 297 316 304 326 318 304 299 297
126 108 41 214 250 257 18 331 287 260 266 264 289 266 293 315 305 259 230 232 228 123 111 258 247 212 227 228 208 243 277 224 211 221 232 254 264 258 254 250 244 243 211 215 241 253 258 274 264 272 281 281 284 306
196 212 180 270 276 333 33 18 319 307 319 330 280 312 307 292 272 285 244 100 90 215 239 227 228 262 211 243 252 234 257 265 235 233 229 245 255 252 250 251 245 233 236 239 240 244 237 239 255 261 271 273 275 277
39 339 307 294 307 320 340 342 342 313 324 299 272 222 242 263 267 294 321 214 212 229 273 254 248 260 261 258 254 266 275 256 254 270 271 267 273 284 268 234 228 228 228 228 230 228 226 237 249 256 261 259 265 271